Location: Gaast
(52.9002°N, 5.8891°E)
Time: 09:53:18
(UTC+00:00)

SJ-12 - Pass Details

Date: 18 November 2025
Orbit: 517 x 528 km, 97.8° (Epoch: 12 December)

Event Time Altitude Azimuth Distance (km) Brightness Sun altitude
Rises 17:05:08 0° 167° (SSE) 2,644 7.3 -12.9°
Reaches altitude 10° 17:07:14 10° 168° (SSE) 1,758 6.4 -13.2°
Maximum altitude 17:11:01 80° 255° (WSW) 536 3.8 -13.8°
Drops below altitude 10° 17:14:50 10° 344° (NNW) 1,766 6.4 -14.4°
Sets 17:16:57 0° 345° (NNW) 2,658 7.3 -14.7°
